This is the latest recevied weather packets stored in our database for station/object KB3KBR-WX. If no packets are shown the sender has not sent any weather packets the latest 1 day(s).
| Time | Temp. | Humidity | Pressure | Rain* | Wind** | Luminosity | Snow |
|---|---|---|---|---|---|---|---|
| 1777982999 | 17.78° C | 67% | 1004.2 hPa | 0 mm | 3.58 m/s, 172° | - | - |
| 1777982669 | 17.78° C | 66% | 1004 hPa | 0 mm | 3.13 m/s, 180° | - | - |
| 1777982339 | 17.78° C | 66% | 1003.8 hPa | 0 mm | 2.68 m/s, 189° | - | - |
| 1777982039 | 17.78° C | 66% | 1003.8 hPa | 0 mm | 3.13 m/s, 173° | - | - |
| 1777981709 | 17.78° C | 66% | 1003.6 hPa | 0 mm | 4.02 m/s, 173° | - | - |
| 1777981409 | 17.78° C | 66% | 1003.7 hPa | 0 mm | 4.02 m/s, 175° | - | - |
| 1777981079 | 17.78° C | 67% | 1003.4 hPa | 0 mm | 2.68 m/s, 175° | - | - |
| 1777980780 | 17.78° C | 67% | 1003.6 hPa | 0 mm | 3.13 m/s, 171° | - | - |
| 1777980451 | 17.22° C | 68% | 1003.5 hPa | 0 mm | 3.13 m/s, 165° | - | - |
| 1777980119 | 17.22° C | 68% | 1003.3 hPa | 0 mm | 3.13 m/s, 166° | - | - |
| 1777979789 | 17.22° C | 68% | 1003.3 hPa | 0 mm | 2.68 m/s, 169° | - | - |
| 1777979489 | 17.22° C | 69% | 1003 hPa | 0 mm | 2.68 m/s, 166° | - | - |
| 1777979159 | 17.22° C | 69% | 1003.1 hPa | 0 mm | 2.68 m/s, 168° | - | - |
| 1777978859 | 17.22° C | 69% | 1003.1 hPa | 0 mm | 2.68 m/s, 171° | - | - |
| 1777978529 | 16.67° C | 70% | 1003 hPa | 0 mm | 2.68 m/s, 162° | - | - |
| 1777978229 | 16.67° C | 70% | 1003 hPa | 0 mm | 2.24 m/s, 158° | - | - |
| 1777977899 | 16.67° C | 70% | 1003 hPa | 0 mm | 2.24 m/s, 165° | - | - |
| 1777977599 | 16.67° C | 70% | 1003 hPa | 0 mm | 2.24 m/s, 167° | - | - |
| 1777977332 | 16.67° C | 70% | 1003.1 hPa | 0 mm | 2.24 m/s, 173° | - | - |
| 1777977299 | 16.67° C | 70% | 1003.1 hPa | 0 mm | 2.24 m/s, 173° | - | - |
| 1777976999 | 16.67° C | 70% | 1003 hPa | 0 mm | 2.68 m/s, 170° | - | - |
| 1777976669 | 16.67° C | 70% | 1002.8 hPa | 0 mm | 2.24 m/s, 164° | - | - |
| 1777976369 | 16.67° C | 69% | 1002.8 hPa | 0 mm | 2.24 m/s, 165° | - | - |
| 1777976040 | 16.67° C | 69% | 1002.8 hPa | 0 mm | 2.24 m/s, 170° | - | - |
| 1777975709 | 16.67° C | 69% | 1002.8 hPa | 0 mm | 2.24 m/s, 168° | - | - |
* Rain latest hour (hover to see other rain measurements)
** Current wind speed in m/s (hover to see current wind gust speed)